| time (UTC) | temp F | wind direction | speed MPH | gust MPH | rain 1hr in | rain 24hr in | rain mn in | humidity % | barometer mb |
| 20260904155838 | 80 | 312 | 4.0 | 9.0 | 0.00 | 0.00 | 0.00 | 13 | 1009.7 |
| 20260904155333 | 79 | 326 | 4.0 | 9.0 | 0.00 | 0.00 | 0.00 | 10 | 1009.7 |
| 20260904154828 | 80 | 290 | 3.0 | 9.0 | 0.00 | 0.00 | 0.00 | 16 | 1009.6 |
| 20260904154321 | 80 | 5 | 4.0 | 10.0 | 0.00 | 0.00 | 0.00 | 8 | 1009.8 |
| 20260904154040 | 80 | 68 | 6.0 | 14.0 | 0.00 | 0.00 | 0.00 | 4 | 1009.9 |
| 20260904153309 | 80 | 93 | 7.0 | 14.0 | 0.00 | 0.00 | 0.00 | 1 | 1009.8 |
| 20260904152803 | 80 | 32 | 4.0 | 14.0 | 0.00 | 0.00 | 0.00 | 1 | 1009.9 |
| 20260904152256 | 80 | 57 | 3.0 | 6.0 | 0.00 | 0.00 | 0.00 | 1 | 1009.9 |
| 20260904151751 | 80 | 57 | 2.0 | 6.0 | 0.00 | 0.00 | 0.00 | 1 | 1010.0 |
| 20260904151252 | 79 | 54 | 2.0 | 6.0 | 0.00 | 0.00 | 0.00 | 1 | 1010.0 |
| 20260904150751 | 79 | 52 | 1.0 | 5.0 | 0.00 | 0.00 | 0.00 | 1 | 1010.0 |
| 20260904150251 | 79 | 54 | 2.0 | 7.0 | 0.00 | 0.00 | 0.00 | 1 | 1010.3 |
| 20260904150013 | 79 | 56 | 4.0 | 10.0 | 0.00 | 0.00 | 0.00 | 1 | 1010.4 |
| 20260904145252 | 79 | 342 | 4.0 | 10.0 | 0.00 | 0.00 | 0.00 | 1 | 1010.4 |
| 20260904144752 | 79 | 62 | 4.0 | 10.0 | 0.00 | 0.00 | 0.00 | 1 | 1010.1 |
| 20260904144252 | 80 | 65 | 3.0 | 10.0 | 0.00 | 0.00 | 0.00 | 1 | 1010.1 |
| 20260904143751 | 79 | 61 | 2.0 | 6.0 | 0.00 | 0.00 | 0.00 | 1 | 1010.2 |
| 20260904143252 | 78 | 62 | 2.0 | 6.0 | 0.00 | 0.00 | 0.00 | 1 | 1010.4 |
| 20260904142751 | 77 | 289 | 1.0 | 5.0 | 0.00 | 0.00 | 0.00 | 1 | 1010.3 |
| 20260904142251 | 76 | 289 | 0.0 | 5.0 | 0.00 | 0.00 | 0.00 | 1 | 1010.2 |
| 20260904142017 | 76 | 281 | 0.0 | 1.0 | 0.00 | 0.00 | 0.00 | 1 | 1010.3 |
| 20260904141252 | 76 | 300 | 0.0 | 2.0 | 0.00 | 0.00 | 0.00 | 1 | 1010.3 |
| 20260904140751 | 75 | 300 | 1.0 | 5.0 | 0.00 | 0.00 | 0.00 | 1 | 1010.2 |
| 20260904140249 | 75 | 300 | 2.0 | 5.0 | 0.00 | 0.00 | 0.00 | 1 | 1010.2 |
| 20260904135749 | 75 | 295 | 2.0 | 5.0 | 0.00 | 0.00 | 0.00 | 1 | 1010.2 |
| 20260904135243 | 75 | 294 | 2.0 | 5.0 | 0.00 | 0.00 | 0.00 | 1 | 1010.1 |
| 20260904134738 | 75 | 294 | 2.0 | 5.0 | 0.00 | 0.00 | 0.00 | 1 | 1010.0 |
| 20260904134230 | 75 | 288 | 1.0 | 4.0 | 0.00 | 0.00 | 0.00 | 1 | 1009.9 |
| 20260904133725 | 74 | 279 | 0.0 | 4.0 | 0.00 | 0.00 | 0.00 | 1 | 1009.9 |
| 20260904133219 | 74 | 279 | 1.0 | 5.0 | 0.00 | 0.00 | 0.00 | 1 | 1010.0 |
| 20260904132713 | 73 | 279 | 1.0 | 5.0 | 0.00 | 0.00 | 0.00 | 1 | 1010.0 |
| 20260904132206 | 72 | 271 | 0.0 | 2.0 | 0.00 | 0.00 | 0.00 | 1 | 1010.0 |
| 20260904131925 | 72 | 271 | 1.0 | 2.0 | 0.00 | 0.00 | 0.00 | 1 | 1010.0 |
| 20260904131155 | 71 | 271 | 1.0 | 2.0 | 0.00 | 0.00 | 0.00 | 1 | 1009.9 |
| 20260904130649 | 72 | 271 | 1.0 | 4.0 | 0.00 | 0.00 | 0.00 | 1 | 1010.0 |
| 20260904130143 | 71 | 269 | 0.0 | 4.0 | 0.00 | 0.00 | 0.00 | 1 | 1010.0 |
| 20260904125637 | 71 | 265 | 0.0 | 2.0 | 0.00 | 0.00 | 0.00 | 1 | 1010.1 |
| 20260904125131 | 71 | 264 | 0.0 | 2.0 | 0.00 | 0.00 | 0.00 | 1 | 1010.1 |
| 20260904124625 | 70 | 264 | 0.0 | 1.0 | 0.00 | 0.00 | 0.00 | 1 | 1010.2 |
| 20260904124118 | 70 | 264 | 0.0 | 5.0 | 0.00 | 0.00 | 0.00 | 1 | 1010.1 |
| 20260904123613 | 70 | 264 | 1.0 | 5.0 | 0.00 | 0.00 | 0.00 | 1 | 1010.1 |
| 20260904123107 | 70 | 264 | 1.0 | 5.0 | 0.00 | 0.00 | 0.00 | 1 | 1010.1 |
| 20260904122601 | 70 | 265 | 1.0 | 5.0 | 0.00 | 0.00 | 0.00 | 1 | 1010.1 |
| 20260904122056 | 70 | 266 | 0.0 | 5.0 | 0.00 | 0.00 | 0.00 | 1 | 1010.0 |
| 20260904121549 | 70 | 266 | 0.0 | 0.0 | 0.00 | 0.00 | 0.00 | 1 | 1010.1 |
| 20260904121043 | 69 | 266 | 0.0 | 0.0 | 0.00 | 0.00 | 0.00 | 1 | 1010.0 |
| 20260904120537 | 69 | 266 | 0.0 | 0.0 | 0.00 | 0.00 | 0.00 | 1 | 1009.9 |
| 20260904120031 | 69 | 266 | 0.0 | 0.0 | 0.00 | 0.00 | 0.00 | 1 | 1009.8 |
| 20260904115747 | 69 | 266 | 0.0 | 0.0 | 0.00 | 0.00 | 0.00 | 1 | 1009.8 |
| 20260904115019 | 68 | 266 | 0.0 | 0.0 | 0.00 | 0.00 | 0.00 | 1 | 1009.7 |
| 20260904114513 | 68 | 266 | 0.0 | 0.0 | 0.00 | 0.00 | 0.00 | 1 | 1009.7 |
| 20260904114227 | 68 | 266 | 0.0 | 0.0 | 0.00 | 0.00 | 0.00 | 1 | 1009.7 |
| 20260904113500 | 68 | 266 | 0.0 | 0.0 | 0.00 | 0.00 | 0.00 | 1 | 1009.7 |
| 20260904112955 | 68 | 266 | 0.0 | 0.0 | 0.00 | 0.00 | 0.00 | 1 | 1009.7 |
| 20260904112449 | 68 | 266 | 0.0 | 0.0 | 0.00 | 0.00 | 0.00 | 1 | 1009.6 |
| 20260904111944 | 68 | 266 | 0.0 | 0.0 | 0.00 | 0.00 | 0.00 | 1 | 1009.7 |
| 20260904111437 | 67 | 266 | 0.0 | 0.0 | 0.00 | 0.00 | 0.00 | 1 | 1009.7 |
| 20260904110931 | 67 | 266 | 0.0 | 0.0 | 0.00 | 0.00 | 0.00 | 1 | 1009.6 |
| 20260904110424 | 67 | 266 | 0.0 | 0.0 | 0.00 | 0.00 | 0.00 | 1 | 1009.5 |
| 20260904105919 | 68 | 266 | 0.0 | 0.0 | 0.00 | 0.00 | 0.00 | 1 | 1009.4 |
| 20260904105413 | 68 | 266 | 0.0 | 0.0 | 0.00 | 0.00 | 0.00 | 1 | 1009.4 |
| 20260904105350 | 68 | 266 | 0.0 | 0.0 | 0.00 | 0.00 | 0.00 | 1 | 1009.4 |
| 20260904104401 | 68 | 266 | 0.0 | 0.0 | 0.00 | 0.00 | 0.00 | 1 | 1009.2 |
| 20260904103855 | 68 | 266 | 0.0 | 0.0 | 0.00 | 0.00 | 0.00 | 1 | 1009.2 |
| 20260904103349 | 68 | 266 | 0.0 | 0.0 | 0.00 | 0.00 | 0.00 | 1 | 1009.2 |
| 20260904103107 | 68 | 266 | 0.0 | 0.0 | 0.00 | 0.00 | 0.00 | 1 | 1009.2 |
| 20260904102559 | 68 | 266 | 0.0 | 0.0 | 0.00 | 0.00 | 0.00 | 1 | 1009.3 |
| 20260904101832 | 69 | 266 | 0.0 | 0.0 | 0.00 | 0.00 | 0.00 | 1 | 1009.3 |
| 20260904101324 | 69 | 266 | 0.0 | 0.0 | 0.00 | 0.00 | 0.00 | 1 | 1009.2 |
| 20260904100819 | 69 | 266 | 0.0 | 0.0 | 0.00 | 0.00 | 0.00 | 1 | 1009.2 |
| 20260904100313 | 69 | 266 | 0.0 | 0.0 | 0.00 | 0.00 | 0.00 | 1 | 1009.1 |
| 20260904100026 | 69 | 266 | 0.0 | 0.0 | 0.00 | 0.00 | 0.00 | 1 | 1009.2 |
| 20260904095301 | 69 | 266 | 0.0 | 0.0 | 0.00 | 0.00 | 0.00 | 1 | 1009.2 |
| 20260904094754 | 69 | 266 | 0.0 | 0.0 | 0.00 | 0.00 | 0.00 | 1 | 1009.1 |
| 20260904094249 | 69 | 266 | 0.0 | 0.0 | 0.00 | 0.00 | 0.00 | 1 | 1009.1 |
| 20260904094007 | 69 | 266 | 0.0 | 0.0 | 0.00 | 0.00 | 0.00 | 1 | 1009.0 |
| 20260904093243 | 69 | 266 | 0.0 | 0.0 | 0.00 | 0.00 | 0.00 | 1 | 1009.0 |
| 20260904092741 | 69 | 266 | 0.0 | 0.0 | 0.00 | 0.00 | 0.00 | 1 | 1008.9 |
| 20260904092239 | 69 | 266 | 0.0 | 0.0 | 0.00 | 0.00 | 0.00 | 1 | 1008.9 |
| 20260904091738 | 70 | 266 | 0.0 | 0.0 | 0.00 | 0.00 | 0.00 | 1 | 1008.9 |
| 20260904091235 | 70 | 266 | 0.0 | 0.0 | 0.00 | 0.00 | 0.00 | 1 | 1008.8 |
| 20260904090733 | 70 | 266 | 0.0 | 0.0 | 0.00 | 0.00 | 0.00 | 1 | 1008.7 |
| 20260904090231 | 70 | 266 | 0.0 | 0.0 | 0.00 | 0.00 | 0.00 | 1 | 1008.6 |
| 20260904085729 | 70 | 266 | 0.0 | 0.0 | 0.00 | 0.00 | 0.00 | 1 | 1008.7 |
| 20260904085446 | 70 | 266 | 0.0 | 0.0 | 0.00 | 0.00 | 0.00 | 1 | 1008.5 |
| 20260904084725 | 70 | 266 | 0.0 | 0.0 | 0.00 | 0.00 | 0.00 | 1 | 1008.6 |
| 20260904084702 | 71 | 266 | 0.0 | 0.0 | 0.00 | 0.00 | 0.00 | 1 | 1008.5 |
| 20260904083947 | 71 | 266 | 0.0 | 0.0 | 0.00 | 0.00 | 0.00 | 1 | 1008.6 |
| 20260904083222 | 71 | 266 | 0.0 | 0.0 | 0.00 | 0.00 | 0.00 | 1 | 1008.4 |
| 20260904082721 | 71 | 266 | 0.0 | 0.0 | 0.00 | 0.00 | 0.00 | 1 | 1008.4 |
| 20260904082703 | 71 | 266 | 0.0 | 0.0 | 0.00 | 0.00 | 0.00 | 1 | 1008.4 |
| 20260904081719 | 71 | 266 | 0.0 | 0.0 | 0.00 | 0.00 | 0.00 | 1 | 1008.3 |
| 20260904081218 | 71 | 266 | 0.0 | 0.0 | 0.00 | 0.00 | 0.00 | 1 | 1008.3 |
| 20260904080717 | 71 | 266 | 0.0 | 0.0 | 0.00 | 0.00 | 0.00 | 1 | 1008.2 |
| 20260904080217 | 71 | 266 | 0.0 | 0.0 | 0.00 | 0.00 | 0.00 | 1 | 1008.0 |
| 20260904075717 | 71 | 266 | 0.0 | 0.0 | 0.00 | 0.00 | 0.00 | 1 | 1008.1 |
| 20260904075436 | 71 | 266 | 0.0 | 0.0 | 0.00 | 0.00 | 0.00 | 1 | 1008.3 |
| 20260904074713 | 71 | 266 | 0.0 | 0.0 | 0.00 | 0.00 | 0.00 | 1 | 1008.3 |
| 20260904074212 | 71 | 266 | 0.0 | 0.0 | 0.00 | 0.00 | 0.00 | 1 | 1008.3 |
| 20260904073932 | 71 | 266 | 0.0 | 0.0 | 0.00 | 0.00 | 0.00 | 1 | 1008.3 |
| 20260904073214 | 71 | 266 | 0.0 | 0.0 | 0.00 | 0.00 | 0.00 | 1 | 1008.2 |
| 20260904072712 | 71 | 266 | 0.0 | 0.0 | 0.00 | 0.00 | 0.00 | 1 | 1008.4 |
| 20260904072213 | 71 | 266 | 0.0 | 0.0 | 0.00 | 0.00 | 0.00 | 1 | 1008.1 |
| 20260904071712 | 71 | 266 | 0.0 | 0.0 | 0.00 | 0.00 | 0.00 | 1 | 1007.9 |
| 20260904071212 | 71 | 266 | 0.0 | 0.0 | 0.00 | 0.00 | 0.00 | 1 | 1008.5 |
| 20260904070709 | 71 | 266 | 0.0 | 0.0 | 0.00 | 0.00 | 0.00 | 1 | 1008.5 |
| 20260904070209 | 71 | 266 | 0.0 | 0.0 | 0.00 | 0.00 | 0.00 | 1 | 1008.6 |
| 20260904065709 | 71 | 266 | 0.0 | 0.0 | 0.00 | 0.00 | 0.00 | 1 | 1008.7 |
| 20260904065207 | 71 | 266 | 0.0 | 0.0 | 0.00 | 0.00 | 0.00 | 1 | 1008.9 |
| 20260904064707 | 71 | 266 | 1.0 | 4.0 | 0.00 | 0.00 | 0.00 | 1 | 1009.2 |
| 20260904064205 | 71 | 266 | 1.0 | 4.0 | 0.00 | 0.00 | 0.00 | 1 | 1009.4 |
| 20260904063704 | 71 | 279 | 0.0 | 2.0 | 0.00 | 0.00 | 0.00 | 1 | 1009.7 |
| 20260904063203 | 71 | 279 | 0.0 | 0.0 | 0.00 | 0.00 | 0.00 | 1 | 1009.4 |
| 20260904062701 | 71 | 279 | 0.0 | 0.0 | 0.00 | 0.00 | 0.00 | 1 | 1009.2 |
| 20260904062159 | 71 | 279 | 0.0 | 0.0 | 0.00 | 0.00 | 0.00 | 1 | 1009.2 |
| 20260904061700 | 71 | 279 | 0.0 | 0.0 | 0.00 | 0.00 | 0.00 | 1 | 1009.3 |
| 20260904061159 | 71 | 279 | 0.0 | 0.0 | 0.00 | 0.00 | 0.00 | 1 | 1009.3 |
| 20260904060659 | 71 | 279 | 0.0 | 0.0 | 0.00 | 0.00 | 0.00 | 1 | 1009.3 |
| 20260904060157 | 71 | 279 | 0.0 | 0.0 | 0.00 | 0.00 | 0.00 | 1 | 1009.2 |
| 20260904055657 | 71 | 279 | 0.0 | 0.0 | 0.00 | 0.00 | 0.00 | 1 | 1009.1 |
| 20260904055157 | 71 | 279 | 0.0 | 0.0 | 0.00 | 0.00 | 0.00 | 1 | 1009.0 |
| 20260904054657 | 71 | 279 | 0.0 | 0.0 | 0.00 | 0.00 | 0.00 | 1 | 1009.1 |
| 20260904054157 | 71 | 279 | 0.0 | 0.0 | 0.00 | 0.00 | 0.00 | 1 | 1009.0 |
| 20260904053653 | 71 | 279 | 0.0 | 0.0 | 0.00 | 0.00 | 0.00 | 1 | 1009.1 |
| 20260904053153 | 71 | 279 | 0.0 | 0.0 | 0.00 | 0.00 | 0.00 | 1 | 1009.1 |
| 20260904052653 | 71 | 279 | 0.0 | 0.0 | 0.00 | 0.00 | 0.00 | 1 | 1009.3 |
| 20260904052644 | 71 | 279 | 0.0 | 0.0 | 0.00 | 0.00 | 0.00 | 1 | 1009.3 |
| 20260904051653 | 71 | 279 | 0.0 | 0.0 | 0.00 | 0.00 | 0.00 | 1 | 1009.3 |
| 20260904051153 | 71 | 279 | 0.0 | 0.0 | 0.00 | 0.00 | 0.00 | 1 | 1009.3 |
| 20260904050652 | 71 | 279 | 0.0 | 0.0 | 0.00 | 0.00 | 0.00 | 1 | 1009.4 |
| 20260904050153 | 71 | 279 | 0.0 | 0.0 | 0.00 | 0.00 | 0.00 | 1 | 1009.3 |
| 20260904045653 | 71 | 279 | 0.0 | 0.0 | 0.00 | 0.00 | 0.00 | 1 | 1009.4 |
| 20260904045149 | 71 | 279 | 0.0 | 0.0 | 0.00 | 0.00 | 0.00 | 1 | 1009.3 |
| 20260904044904 | 71 | 279 | 0.0 | 0.0 | 0.00 | 0.00 | 0.00 | 1 | 1009.3 |
| 20260904044410 | 71 | 279 | 0.0 | 0.0 | 0.00 | 0.00 | 0.00 | 1 | 1009.1 |
| 20260904043649 | 71 | 279 | 0.0 | 0.0 | 0.00 | 0.00 | 0.00 | 1 | 1009.3 |
| 20260904043149 | 71 | 279 | 0.0 | 0.0 | 0.00 | 0.00 | 0.00 | 1 | 1009.5 |
| 20260904042905 | 71 | 279 | 0.0 | 0.0 | 0.00 | 0.00 | 0.00 | 1 | 1009.5 |
| 20260904042149 | 71 | 279 | 0.0 | 0.0 | 0.00 | 0.00 | 0.00 | 1 | 1009.5 |
| 20260904041649 | 71 | 279 | 0.0 | 0.0 | 0.00 | 0.00 | 0.00 | 1 | 1009.4 |
| 20260904041149 | 71 | 279 | 0.0 | 0.0 | 0.00 | 0.00 | 0.00 | 1 | 1009.2 |
| 20260904040854 | 71 | 279 | 0.0 | 0.0 | 0.00 | 0.00 | 0.00 | 1 | 1009.4 |
| 20260904040738 | 71 | 279 | 0.0 | 0.0 | 0.00 | 0.00 | 0.00 | 1 | 1009.3 |
| 20260904035645 | 71 | 279 | 0.0 | 0.0 | 0.00 | 0.00 | 0.00 | 1 | 1009.6 |
| 20260904035144 | 71 | 279 | 0.0 | 0.0 | 0.00 | 0.00 | 0.00 | 1 | 1009.7 |
| 20260904034644 | 71 | 279 | 0.0 | 0.0 | 0.00 | 0.00 | 0.00 | 1 | 1009.8 |
| 20260904034145 | 71 | 279 | 0.0 | 0.0 | 0.00 | 0.00 | 0.00 | 1 | 1009.7 |
| 20260904033645 | 71 | 279 | 0.0 | 0.0 | 0.00 | 0.00 | 0.00 | 1 | 1009.8 |
| 20260904033145 | 71 | 279 | 0.0 | 0.0 | 0.00 | 0.00 | 0.00 | 1 | 1009.7 |
| 20260904032645 | 71 | 279 | 0.0 | 0.0 | 0.00 | 0.00 | 0.00 | 1 | 1009.7 |
| 20260904032144 | 71 | 279 | 0.0 | 0.0 | 0.00 | 0.00 | 0.00 | 1 | 1009.7 |
| 20260904031645 | 71 | 279 | 0.0 | 0.0 | 0.00 | 0.00 | 0.00 | 1 | 1009.8 |
| 20260904031145 | 71 | 279 | 0.0 | 0.0 | 0.00 | 0.00 | 0.00 | 1 | 1009.7 |
| 20260904030645 | 71 | 279 | 0.0 | 0.0 | 0.00 | 0.00 | 0.00 | 1 | 1009.7 |
| 20260904030145 | 71 | 279 | 0.0 | 0.0 | 0.00 | 0.00 | 0.00 | 1 | 1009.8 |
| 20260904025645 | 72 | 279 | 0.0 | 0.0 | 0.00 | 0.00 | 0.00 | 1 | 1009.9 |
| 20260904025144 | 72 | 279 | 0.0 | 0.0 | 0.00 | 0.00 | 0.00 | 1 | 1010.1 |
| 20260904024644 | 72 | 279 | 0.0 | 0.0 | 0.00 | 0.00 | 0.00 | 1 | 1010.4 |
| 20260904024144 | 72 | 279 | 0.0 | 0.0 | 0.00 | 0.00 | 0.00 | 1 | 1010.5 |
| 20260904023645 | 71 | 279 | 0.0 | 0.0 | 0.00 | 0.00 | 0.00 | 1 | 1010.5 |
| 20260904023145 | 71 | 279 | 0.0 | 0.0 | 0.00 | 0.00 | 0.00 | 1 | 1010.4 |
| 20260904022643 | 72 | 279 | 0.0 | 0.0 | 0.00 | 0.00 | 0.00 | 1 | 1010.3 |
| 20260904022141 | 72 | 279 | 0.0 | 0.0 | 0.00 | 0.00 | 0.00 | 1 | 1010.1 |
| 20260904021639 | 72 | 279 | 0.0 | 0.0 | 0.00 | 0.00 | 0.00 | 1 | 1010.1 |
| 20260904021134 | 72 | 279 | 0.0 | 0.0 | 0.00 | 0.00 | 0.00 | 1 | 1010.0 |
| 20260904020632 | 72 | 279 | 0.0 | 0.0 | 0.00 | 0.00 | 0.00 | 1 | 1010.0 |
| 20260904020132 | 72 | 279 | 0.0 | 1.0 | 0.00 | 0.00 | 0.00 | 1 | 1010.2 |
| 20260904015850 | 72 | 279 | 0.0 | 1.0 | 0.00 | 0.00 | 0.00 | 1 | 1010.2 |
| 20260904015130 | 72 | 279 | 0.0 | 0.0 | 0.00 | 0.00 | 0.00 | 1 | 1010.4 |
| 20260904014630 | 72 | 279 | 0.0 | 0.0 | 0.00 | 0.00 | 0.00 | 1 | 1010.6 |
| 20260904014131 | 73 | 279 | 0.0 | 0.0 | 0.00 | 0.00 | 0.00 | 1 | 1010.5 |
| 20260904013847 | 73 | 279 | 0.0 | 0.0 | 0.00 | 0.00 | 0.00 | 1 | 1010.4 |
| 20260904013129 | 73 | 279 | 0.0 | 0.0 | 0.00 | 0.00 | 0.00 | 1 | 1010.3 |
| 20260904012627 | 73 | 279 | 0.0 | 0.0 | 0.00 | 0.00 | 0.00 | 1 | 1010.3 |
| 20260904012121 | 73 | 279 | 0.0 | 0.0 | 0.00 | 0.00 | 0.00 | 1 | 1010.2 |
| 20260904011613 | 73 | 279 | 0.0 | 0.0 | 0.00 | 0.00 | 0.00 | 1 | 1010.1 |
| 20260904011108 | 73 | 279 | 0.0 | 0.0 | 0.00 | 0.00 | 0.00 | 1 | 1010.1 |
| 20260904010602 | 73 | 279 | 0.0 | 0.0 | 0.00 | 0.00 | 0.00 | 1 | 1010.2 |
| 20260904010056 | 74 | 279 | 0.0 | 0.0 | 0.00 | 0.00 | 0.00 | 1 | 1010.1 |
| 20260904005550 | 74 | 279 | 0.0 | 0.0 | 0.00 | 0.00 | 0.00 | 1 | 1010.3 |
| 20260904005044 | 74 | 279 | 0.0 | 0.0 | 0.00 | 0.00 | 0.00 | 1 | 1010.2 |
| 20260904004538 | 74 | 279 | 0.0 | 0.0 | 0.00 | 0.00 | 0.00 | 1 | 1010.1 |
| 20260904004032 | 74 | 279 | 0.0 | 0.0 | 0.00 | 0.00 | 0.00 | 1 | 1010.1 |
| 20260904003526 | 74 | 279 | 0.0 | 0.0 | 0.00 | 0.00 | 0.00 | 1 | 1010.1 |
| 20260904003019 | 74 | 279 | 0.0 | 2.0 | 0.00 | 0.00 | 0.00 | 1 | 1010.0 |
| 20260904002514 | 74 | 279 | 0.0 | 2.0 | 0.00 | 0.00 | 0.00 | 1 | 1010.1 |
| 20260904002008 | 75 | 279 | 0.0 | 0.0 | 0.00 | 0.00 | 0.00 | 1 | 1010.0 |
| 20260904001503 | 75 | 279 | 0.0 | 1.0 | 0.00 | 0.00 | 0.00 | 1 | 1009.9 |
| 20260904000956 | 75 | 279 | 0.0 | 1.0 | 0.00 | 0.00 | 0.00 | 1 | 1009.9 |
| 20260904000711 | 76 | 279 | 0.0 | 0.0 | 0.00 | 0.00 | 0.00 | 1 | 1009.9 |
| 20260903235944 | 76 | 279 | 0.0 | 1.0 | 0.00 | 0.00 | 0.00 | 1 | 1009.7 |
| 20260903235438 | 76 | 279 | 0.0 | 1.0 | 0.00 | 0.00 | 0.00 | 1 | 1009.7 |
| 20260903234931 | 77 | 279 | 0.0 | 0.0 | 0.00 | 0.00 | 0.00 | 1 | 1009.6 |
| 20260903234426 | 77 | 279 | 0.0 | 0.0 | 0.00 | 0.00 | 0.00 | 1 | 1009.9 |
| 20260903234137 | 77 | 279 | 0.0 | 0.0 | 0.00 | 0.00 | 0.00 | 1 | 1009.7 |
| 20260903233413 | 78 | 279 | 0.0 | 0.0 | 0.00 | 0.00 | 0.00 | 1 | 1009.5 |
| 20260903232908 | 78 | 279 | 0.0 | 0.0 | 0.00 | 0.00 | 0.00 | 1 | 1009.4 |
| 20260903232402 | 78 | 279 | 0.0 | 0.0 | 0.00 | 0.00 | 0.00 | 1 | 1009.3 |
| 20260903231856 | 79 | 279 | 0.0 | 1.0 | 0.00 | 0.00 | 0.00 | 1 | 1009.3 |
| 20260903231350 | 79 | 279 | 0.0 | 1.0 | 0.00 | 0.00 | 0.00 | 1 | 1009.3 |
| 20260903230843 | 80 | 279 | 0.0 | 1.0 | 0.00 | 0.00 | 0.00 | 1 | 1009.4 |
| 20260903230338 | 80 | 279 | 0.0 | 1.0 | 0.00 | 0.00 | 0.00 | 1 | 1009.3 |
| 20260903225832 | 80 | 279 | 0.0 | 0.0 | 0.00 | 0.00 | 0.00 | 1 | 1009.3 |
| 20260903225326 | 81 | 279 | 0.0 | 0.0 | 0.00 | 0.00 | 0.00 | 1 | 1009.2 |
| 20260903224826 | 81 | 279 | 0.0 | 0.0 | 0.00 | 0.00 | 0.00 | 1 | 1009.1 |
| 20260903224324 | 81 | 279 | 0.0 | 0.0 | 0.00 | 0.00 | 0.00 | 1 | 1009.1 |
| 20260903224308 | 82 | 279 | 0.0 | 0.0 | 0.00 | 0.00 | 0.00 | 1 | 1009.1 |
| 20260903223324 | 82 | 279 | 0.0 | 0.0 | 0.00 | 0.00 | 0.00 | 1 | 1009.4 |
| 20260903222822 | 82 | 279 | 0.0 | 0.0 | 0.00 | 0.00 | 0.00 | 1 | 1009.4 |
| 20260903222320 | 82 | 279 | 0.0 | 0.0 | 0.00 | 0.00 | 0.00 | 1 | 1009.5 |
| 20260903221818 | 83 | 279 | 0.0 | 1.0 | 0.00 | 0.00 | 0.00 | 1 | 1009.3 |
| 20260903221317 | 83 | 279 | 0.0 | 2.0 | 0.00 | 0.00 | 0.00 | 1 | 1009.1 |
| 20260903220816 | 83 | 279 | 0.0 | 2.0 | 0.00 | 0.00 | 0.00 | 1 | 1009.1 |
| 20260903220316 | 83 | 279 | 0.0 | 0.0 | 0.00 | 0.00 | 0.00 | 1 | 1009.3 |
| 20260903215814 | 83 | 279 | 0.0 | 0.0 | 0.00 | 0.00 | 0.00 | 1 | 1009.3 |
| 20260903215531 | 82 | 279 | 0.0 | 0.0 | 0.00 | 0.00 | 0.00 | 1 | 1009.3 |
| 20260903214811 | 82 | 279 | 0.0 | 0.0 | 0.00 | 0.00 | 0.00 | 1 | 1009.3 |
| 20260903214310 | 82 | 279 | 0.0 | 0.0 | 0.00 | 0.00 | 0.00 | 1 | 1009.4 |
| 20260903214031 | 83 | 279 | 0.0 | 1.0 | 0.00 | 0.00 | 0.00 | 1 | 1009.4 |
| 20260903213309 | 84 | 279 | 1.0 | 4.0 | 0.00 | 0.00 | 0.00 | 1 | 1009.4 |
| 20260903212806 | 84 | 279 | 1.0 | 4.0 | 0.00 | 0.00 | 0.00 | 1 | 1009.5 |
| 20260903212620 | 85 | 279 | 1.0 | 4.0 | 0.00 | 0.00 | 0.00 | 1 | 1009.4 |
| 20260903212516 | 85 | 279 | 1.0 | 5.0 | 0.00 | 0.00 | 0.00 | 1 | 1009.3 |
| 20260903211305 | 85 | 279 | 2.0 | 6.0 | 0.00 | 0.00 | 0.00 | 1 | 1009.3 |
| 20260903210758 | 86 | 279 | 2.0 | 6.0 | 0.00 | 0.00 | 0.00 | 15 | 1009.2 |
| 20260903210253 | 86 | 280 | 3.0 | 7.0 | 0.00 | 0.00 | 0.00 | 15 | 1009.3 |
| 20260903210009 | 87 | 281 | 3.0 | 8.0 | 0.00 | 0.00 | 0.00 | 22 | 1009.3 |
| 20260903205240 | 87 | 242 | 2.0 | 8.0 | 0.00 | 0.00 | 0.00 | 18 | 1009.3 |
| 20260903204735 | 87 | 308 | 2.0 | 7.0 | 0.00 | 0.00 | 0.00 | 21 | 1009.2 |
| 20260903204228 | 87 | 228 | 1.0 | 7.0 | 0.00 | 0.00 | 0.00 | 22 | 1009.2 |
| 20260903203722 | 87 | 279 | 0.0 | 0.0 | 0.00 | 0.00 | 0.00 | 17 | 1009.2 |
| 20260903203216 | 87 | 279 | 0.0 | 0.0 | 0.00 | 0.00 | 0.00 | 22 | 1009.3 |
| 20260903202710 | 87 | 279 | 0.0 | 1.0 | 0.00 | 0.00 | 0.00 | 24 | 1009.3 |
| 20260903202424 | 87 | 279 | 0.0 | 1.0 | 0.00 | 0.00 | 0.00 | 3 | 1009.4 |
| 20260903201658 | 87 | 276 | 1.0 | 5.0 | 0.00 | 0.00 | 0.00 | 4 | 1009.3 |
| 20260903201152 | 86 | 276 | 2.0 | 7.0 | 0.00 | 0.00 | 0.00 | 14 | 1009.3 |
| 20260903200646 | 86 | 276 | 2.0 | 7.0 | 0.00 | 0.00 | 0.00 | 1 | 1009.3 |
| 20260903200139 | 86 | 277 | 2.0 | 7.0 | 0.00 | 0.00 | 0.00 | 10 | 1009.6 |
| 20260903195634 | 86 | 347 | 1.0 | 6.0 | 0.00 | 0.00 | 0.00 | 1 | 1009.6 |
| 20260903195128 | 85 | 69 | 0.0 | 2.0 | 0.00 | 0.00 | 0.00 | 1 | 1009.5 |
| 20260903194628 | 84 | 69 | 0.0 | 4.0 | 0.00 | 0.00 | 0.00 | 1 | 1009.7 |
| 20260903194126 | 84 | 69 | 1.0 | 4.0 | 0.00 | 0.00 | 0.00 | 1 | 1009.8 |
| 20260903193624 | 83 | 69 | 1.0 | 4.0 | 0.00 | 0.00 | 0.00 | 1 | 1009.8 |
| 20260903193124 | 83 | 69 | 0.0 | 5.0 | 0.00 | 0.00 | 0.00 | 1 | 1009.9 |
| 20260903192848 | 83 | 69 | 0.0 | 5.0 | 0.00 | 0.00 | 0.00 | 1 | 1009.8 |
| 20260903192124 | 83 | 67 | 0.0 | 5.0 | 0.00 | 0.00 | 0.00 | 1 | 1009.9 |
| 20260903191624 | 83 | 67 | 1.0 | 5.0 | 0.00 | 0.00 | 0.00 | 1 | 1010.0 |
| 20260903191350 | 84 | 67 | 0.0 | 4.0 | 0.00 | 0.00 | 0.00 | 1 | 1010.1 |
| 20260903190624 | 83 | 67 | 0.0 | 2.0 | 0.00 | 0.00 | 0.00 | 1 | 1010.1 |
| 20260903190122 | 84 | 67 | 0.0 | 0.0 | 0.00 | 0.00 | 0.00 | 1 | 1010.0 |
| 20260903185620 | 83 | 67 | 1.0 | 3.0 | 0.00 | 0.00 | 0.00 | 1 | 1010.0 |
| 20260903185118 | 83 | 67 | 2.0 | 6.0 | 0.00 | 0.00 | 0.00 | 1 | 1010.1 |
| 20260903184616 | 83 | 67 | 2.0 | 6.0 | 0.00 | 0.00 | 0.00 | 1 | 1010.1 |
| 20260903184116 | 84 | 265 | 1.0 | 7.0 | 0.00 | 0.00 | 0.00 | 1 | 1010.1 |
| 20260903183616 | 84 | 265 | 1.0 | 7.0 | 0.00 | 0.00 | 0.00 | 1 | 1010.2 |
| 20260903183114 | 84 | 263 | 1.0 | 4.0 | 0.00 | 0.00 | 0.00 | 1 | 1010.2 |
| 20260903182614 | 84 | 262 | 3.0 | 8.0 | 0.00 | 0.00 | 0.00 | 1 | 1010.2 |
| 20260903182114 | 84 | 262 | 4.0 | 8.0 | 0.00 | 0.00 | 0.00 | 1 | 1010.1 |
| 20260903181615 | 84 | 266 | 4.0 | 7.0 | 0.00 | 0.00 | 0.00 | 1 | 1010.2 |
| 20260903181108 | 84 | 265 | 4.0 | 9.0 | 0.00 | 0.00 | 0.00 | 1 | 1010.3 |
| 20260903180608 | 84 | 269 | 5.0 | 9.0 | 0.00 | 0.00 | 0.00 | 1 | 1010.3 |
| 20260903180107 | 83 | 252 | 6.0 | 10.0 | 0.00 | 0.00 | 0.00 | 1 | 1010.4 |
| 20260903175608 | 83 | 246 | 6.0 | 10.0 | 0.00 | 0.00 | 0.00 | 1 | 1010.4 |
| 20260903175108 | 83 | 253 | 5.0 | 10.0 | 0.00 | 0.00 | 0.00 | 1 | 1010.4 |
| 20260903174608 | 83 | 309 | 4.0 | 8.0 | 0.00 | 0.00 | 0.00 | 1 | 1010.3 |
| 20260903174108 | 83 | 292 | 4.0 | 8.0 | 0.00 | 0.00 | 0.00 | 1 | 1010.4 |
| 20260903173608 | 82 | 222 | 4.0 | 8.0 | 0.00 | 0.00 | 0.00 | 1 | 1010.4 |
| 20260903173329 | 82 | 254 | 4.0 | 8.0 | 0.00 | 0.00 | 0.00 | 1 | 1010.4 |
| 20260903172608 | 82 | 227 | 4.0 | 9.0 | 0.00 | 0.00 | 0.00 | 1 | 1010.4 |
| 20260903172326 | 81 | 229 | 4.0 | 9.0 | 0.00 | 0.00 | 0.00 | 1 | 1010.6 |
| 20260903172045 | 81 | 257 | 4.0 | 7.0 | 0.00 | 0.00 | 0.00 | 1 | 1010.5 |
| 20260903171108 | 80 | 254 | 4.0 | 8.0 | 0.00 | 0.00 | 0.00 | 1 | 1010.6 |
| 20260903170609 | 80 | 263 | 4.0 | 8.0 | 0.00 | 0.00 | 0.00 | 1 | 1010.7 |
| 20260903170109 | 80 | 280 | 4.0 | 10.0 | 0.00 | 0.00 | 0.00 | 1 | 1010.8 |
| 20260903165602 | 80 | 238 | 4.0 | 10.0 | 0.00 | 0.00 | 0.00 | 1 | 1010.7 |
| 20260903165056 | 80 | 215 | 5.0 | 10.0 | 0.00 | 0.00 | 0.00 | 1 | 1010.7 |
| 20260903164556 | 81 | 269 | 5.0 | 10.0 | 0.00 | 0.00 | 0.00 | 1 | 1010.8 |
| 20260903164056 | 82 | 252 | 6.0 | 12.0 | 0.00 | 0.00 | 0.00 | 1 | 1010.9 |
| 20260903163556 | 81 | 254 | 5.0 | 12.0 | 0.00 | 0.00 | 0.00 | 1 | 1011.0 |
| 20260903163056 | 81 | 219 | 5.0 | 12.0 | 0.00 | 0.00 | 0.00 | 1 | 1011.1 |
| 20260903162556 | 80 | 169 | 6.0 | 10.0 | 0.00 | 0.00 | 0.00 | 1 | 1011.1 |
| 20260903162054 | 80 | 256 | 5.0 | 10.0 | 0.00 | 0.00 | 0.00 | 1 | 1011.1 |
| 20260903161817 | 79 | 262 | 4.0 | 8.0 | 0.00 | 0.00 | 0.00 | 1 | 1011.2 |
| 20260903161052 | 78 | 296 | 4.0 | 8.0 | 0.00 | 0.00 | 0.00 | 1 | 1011.3 |
| 20260903160815 | 78 | 233 | 4.0 | 8.0 | 0.00 | 0.00 | 0.00 | 1 | 1011.4 |